EW5967 Weather Reports


Display with metric or nautical units.
time (UTC)temp
F
wind
direction
speed
MPH
gust
MPH
rain 1hr
in
rain 24hr
in
rain mn
in
humidity
%
barometer
mb
20260902232058 88 251 5.0 10.0 0.00 0.00 0.00 6 1005.6
20260902231558 88 196 5.0 17.0 0.00 0.00 0.00 5 1005.7
20260902231057 89 219 6.0 13.0 0.00 0.00 0.00 5 1005.7
20260902230556 89 219 6.0 15.0 0.00 0.00 0.00 5 1005.7
20260902230104 89 207 5.0 15.0 0.00 0.00 0.00 5 1005.7
20260902225556 88 171 2.0 12.0 0.00 0.00 0.00 5 1005.6
20260902225057 89 236 6.0 13.0 0.00 0.00 0.00 5 1005.7
20260902224558 88 167 6.0 13.0 0.00 0.00 0.00 5 1005.8
20260902224055 88 207 4.0 13.0 0.00 0.00 0.00 5 1005.8
20260902223555 88 220 6.0 15.0 0.00 0.00 0.00 5 1005.9
20260902223114 89 179 6.0 15.0 0.00 0.00 0.00 5 1006.0
20260902222554 89 196 7.0 16.0 0.00 0.00 0.00 5 1006.0
20260902222058 88 216 5.0 16.0 0.00 0.00 0.00 5 1006.1
20260902221552 89 196 4.0 13.0 0.00 0.00 0.00 5 1006.1
20260902221055 88 220 5.0 19.0 0.00 0.00 0.00 5 1006.2
20260902220652 88 182 5.0 19.0 0.00 0.00 0.00 5 1006.2
20260902220054 88 226 5.0 15.0 0.00 0.00 0.00 5 1006.3
20260902215550 89 200 4.0 14.0 0.00 0.00 0.00 5 1006.4
20260902215052 89 225 7.0 12.0 0.00 0.00 0.00 5 1006.4
20260902214552 89 237 7.0 14.0 0.00 0.00 0.00 5 1006.5
20260902214050 89 182 5.0 18.0 0.00 0.00 0.00 5 1006.6
20260902213550 88 239 7.0 18.0 0.00 0.00 0.00 5 1006.6
20260902213047 88 148 4.0 13.0 0.00 0.00 0.00 5 1006.7
20260902212547 88 168 7.0 12.0 0.00 0.00 0.00 5 1006.8
20260902212046 88 198 4.0 10.0 0.00 0.00 0.00 5 1006.8
20260902211545 88 258 5.0 17.0 0.00 0.00 0.00 5 1006.8
20260902211046 88 186 4.0 17.0 0.00 0.00 0.00 5 1006.9
20260902210546 88 200 7.0 14.0 0.00 0.00 0.00 5 1007.0
20260902210045 88 198 5.0 19.0 0.00 0.00 0.00 6 1007.0
20260902205544 87 263 6.0 19.0 0.00 0.00 0.00 5 1007.0
20260902205044 88 169 9.0 18.0 0.00 0.00 0.00 5 1007.0
20260902204559 88 225 3.0 12.0 0.00 0.00 0.00 6 1007.1
20260902204043 87 207 6.0 13.0 0.00 0.00 0.00 5 1007.2
20260902203542 87 209 8.0 13.0 0.00 0.00 0.00 6 1007.2
20260902203041 87 180 6.0 14.0 0.00 0.00 0.00 6 1007.2
20260902202539 87 169 7.0 16.0 0.00 0.00 0.00 6 1007.3
20260902202039 87 187 9.0 20.0 0.00 0.00 0.00 6 1007.3
20260902201540 87 200 9.0 20.0 0.00 0.00 0.00 5 1007.5
20260902201042 87 190 8.0 18.0 0.00 0.00 0.00 5 1007.6
20260902200537 87 195 8.0 18.0 0.00 0.00 0.00 6 1007.4
20260902200037 86 209 9.0 16.0 0.00 0.00 0.00 6 1007.4
20260902195536 86 190 8.0 17.0 0.00 0.00 0.00 6 1007.6
20260902195037 86 144 8.0 16.0 0.00 0.00 0.00 6 1007.6
20260902194535 86 190 10.0 19.0 0.00 0.00 0.00 6 1007.6
20260902194035 86 214 6.0 18.0 0.00 0.00 0.00 6 1007.6
20260902193538 86 164 10.0 18.0 0.00 0.00 0.00 5 1007.5
20260902193035 86 207 6.0 22.0 0.00 0.00 0.00 5 1007.6
20260902192535 86 196 11.0 22.0 0.00 0.00 0.00 6 1007.7
20260902192034 86 195 9.0 16.0 0.00 0.00 0.00 6 1007.9
20260902191535 86 166 9.0 16.0 0.00 0.00 0.00 6 1007.9
20260902191035 86 211 7.0 14.0 0.00 0.00 0.00 6 1007.8
20260902190534 85 192 5.0 16.0 0.00 0.00 0.00 7 1007.9
20260902190036 86 177 8.0 15.0 0.00 0.00 0.00 6 1008.0
20260902185634 86 189 5.0 12.0 0.00 0.00 0.00 6 1008.0
20260902185033 86 180 4.0 16.0 0.00 0.00 0.00 6 1008.1
20260902184535 86 209 6.0 16.0 0.00 0.00 0.00 5 1008.3
20260902184034 86 152 4.0 17.0 0.00 0.00 0.00 6 1008.4
20260902183532 85 213 7.0 17.0 0.00 0.00 0.00 6 1008.5
20260902183050 86 166 6.0 13.0 0.00 0.00 0.00 6 1008.5
20260902182531 85 189 7.0 14.0 0.00 0.00 0.00 5 1008.5
20260902182032 85 202 6.0 14.0 0.00 0.00 0.00 6 1008.5
20260902181531 85 208 5.0 12.0 0.00 0.00 0.00 6 1008.4
20260902181031 86 187 3.0 16.0 0.00 0.00 0.00 6 1008.4
20260902180528 85 246 4.0 16.0 0.00 0.00 0.00 6 1008.4
20260902180027 84 173 6.0 18.0 0.00 0.00 0.00 7 1008.4
20260902175527 84 188 6.0 18.0 0.00 0.00 0.00 6 1008.4
20260902175027 84 202 5.0 12.0 0.00 0.00 0.00 7 1008.3
20260902174528 84 169 6.0 12.0 0.00 0.00 0.00 7 1008.3
20260902174025 84 201 6.0 10.0 0.00 0.00 0.00 7 1008.3
20260902173527 84 211 5.0 17.0 0.00 0.00 0.00 7 1008.3
20260902173028 84 196 7.0 17.0 0.00 0.00 0.00 7 1008.3
20260902172525 83 248 4.0 12.0 0.00 0.00 0.00 7 1008.3
20260902172025 84 204 5.0 11.0 0.00 0.00 0.00 7 1008.3
20260902171525 83 189 4.0 11.0 0.00 0.00 0.00 8 1008.3
20260902171025 84 224 3.0 10.0 0.00 0.00 0.00 7 1008.3
20260902170524 84 246 1.0 9.0 0.00 0.00 0.00 8 1008.4
20260902170025 83 227 4.0 11.0 0.00 0.00 0.00 7 1008.4
20260902165521 83 200 5.0 11.0 0.00 0.00 0.00 7 1008.4
20260902165021 82 234 3.0 12.0 0.00 0.00 0.00 7 1008.4
20260902164525 82 219 6.0 12.0 0.00 0.00 0.00 7 1008.4
20260902164019 82 211 4.0 10.0 0.00 0.00 0.00 7 1008.4
20260902163521 82 242 4.0 15.0 0.00 0.00 0.00 7 1008.4
20260902163018 81 238 5.0 15.0 0.00 0.00 0.00 7 1008.4
20260902162516 81 229 5.0 12.0 0.00 0.00 0.00 7 1008.4
20260902162015 81 223 4.0 12.0 0.00 0.00 0.00 7 1008.4
20260902161515 81 236 3.0 10.0 0.00 0.00 0.00 8 1008.3
20260902161014 80 222 5.0 12.0 0.00 0.00 0.00 8 1008.2
20260902160513 80 260 6.0 12.0 0.00 0.00 0.00 8 1008.2
20260902160011 80 246 6.0 12.0 0.00 0.00 0.00 7 1008.2
20260902155510 80 217 5.0 16.0 0.00 0.00 0.00 8 1008.2
20260902155009 79 235 6.0 14.0 0.00 0.00 0.00 8 1008.1
20260902154509 79 215 4.0 14.0 0.00 0.00 0.00 9 1008.1
20260902154007 79 220 6.0 13.0 0.00 0.00 0.00 8 1008.0
20260902153507 79 242 7.0 12.0 0.00 0.00 0.00 9 1007.9
20260902153009 78 217 6.0 11.0 0.00 0.00 0.00 9 1007.9
20260902152505 78 163 6.0 16.0 0.00 0.00 0.00 10 1007.9
20260902152005 78 268 7.0 16.0 0.00 0.00 0.00 10 1007.8
20260902151505 77 204 8.0 17.0 0.00 0.00 0.00 10 1007.7
20260902151004 77 263 8.0 17.0 0.00 0.00 0.00 10 1007.7
20260902150504 77 252 6.0 15.0 0.00 0.00 0.00 10 1007.7
20260902150006 77 249 7.0 18.0 0.00 0.00 0.00 11 1007.6
20260902145502 77 264 8.0 18.0 0.00 0.00 0.00 10 1007.6
20260902145003 77 214 6.0 14.0 0.00 0.00 0.00 11 1007.6
20260902144502 76 265 8.0 13.0 0.00 0.00 0.00 11 1007.6
20260902144002 76 202 8.0 15.0 0.00 0.00 0.00 11 1007.5
20260902143503 76 243 7.0 15.0 0.00 0.00 0.00 11 1007.5
20260902143002 75 249 6.0 14.0 0.00 0.00 0.00 12 1007.5
20260902142501 74 234 5.0 11.0 0.00 0.00 0.00 12 1007.6
20260902142002 73 223 5.0 9.0 0.00 0.00 0.00 15 1007.6
20260902141601 73 208 5.0 9.0 0.00 0.00 0.00 14 1007.6
20260902141059 73 221 4.0 9.0 0.00 0.00 0.00 14 1007.6
20260902140559 72 204 3.0 9.0 0.00 0.00 0.00 15 1007.5
20260902140059 72 215 3.0 8.0 0.00 0.00 0.00 15 1007.5
20260902135557 72 227 4.0 9.0 0.00 0.00 0.00 15 1007.4
20260902135057 71 213 3.0 10.0 0.00 0.00 0.00 15 1007.4
20260902134557 71 213 3.0 11.0 0.00 0.00 0.00 15 1007.5
20260902134056 71 214 6.0 12.0 0.00 0.00 0.00 15 1007.4
20260902133556 71 198 5.0 10.0 0.00 0.00 0.00 15 1007.5
20260902133103 71 211 4.0 7.0 0.00 0.00 0.00 14 1007.4
20260902132556 71 223 3.0 8.0 0.00 0.00 0.00 15 1007.3
20260902132056 71 222 3.0 8.0 0.00 0.00 0.00 15 1007.3
20260902131554 71 223 3.0 7.0 0.00 0.00 0.00 14 1007.3
20260902131053 71 230 3.0 8.0 0.00 0.00 0.00 14 1007.2
20260902130552 71 208 3.0 7.0 0.00 0.00 0.00 14 1007.1
20260902130052 71 213 2.0 8.0 0.00 0.00 0.00 15 1007.1
20260902125551 71 205 4.0 8.0 0.00 0.00 0.00 15 1007.1
20260902125053 71 213 1.0 8.0 0.00 0.00 0.00 15 1007.0
20260902124550 71 221 4.0 8.0 0.00 0.00 0.00 15 1007.0
20260902124048 71 227 2.0 7.0 0.00 0.00 0.00 15 1007.0
20260902123549 71 207 2.0 8.0 0.00 0.00 0.00 15 1006.9
20260902123050 71 202 3.0 8.0 0.00 0.00 0.00 15 1006.8
20260902122547 71 212 2.0 7.0 0.00 0.00 0.00 15 1006.7
20260902122046 72 202 2.0 6.0 0.00 0.00 0.00 15 1006.7
20260902121546 72 207 3.0 9.0 0.00 0.00 0.00 15 1006.7
20260902121044 72 184 5.0 9.0 0.00 0.00 0.00 14 1006.6
20260902120545 72 184 3.0 9.0 0.00 0.00 0.00 14 1006.5
20260902120045 72 186 3.0 8.0 0.00 0.00 0.00 14 1006.6
20260902115542 73 181 4.0 8.0 0.00 0.00 0.00 14 1006.5
20260902115041 73 197 1.0 8.0 0.00 0.00 0.00 14 1006.6
20260902114542 73 194 2.0 9.0 0.00 0.00 0.00 14 1006.5
20260902114041 73 210 3.0 9.0 0.00 0.00 0.00 14 1006.5
20260902113540 73 227 2.0 7.0 0.00 0.00 0.00 14 1006.4
20260902113039 73 195 4.0 9.0 0.00 0.00 0.00 14 1006.4
20260902112539 73 163 4.0 12.0 0.00 0.00 0.00 14 1006.4
20260902112041 74 193 3.0 15.0 0.00 0.00 0.00 14 1006.4
20260902111539 74 150 4.0 12.0 0.00 0.00 0.00 14 1006.4
20260902111037 73 185 6.0 13.0 0.00 0.00 0.00 14 1006.4
20260902110537 74 184 4.0 15.0 0.00 0.00 0.00 14 1006.4
20260902110047 74 212 7.0 15.0 0.00 0.00 0.00 14 1006.3
20260902105536 73 183 4.0 8.0 0.00 0.00 0.00 14 1006.4
20260902105036 73 184 2.0 8.0 0.00 0.00 0.00 15 1006.4
20260902104553 73 192 2.0 8.0 0.00 0.00 0.00 14 1006.4
20260902104036 73 204 3.0 8.0 0.00 0.00 0.00 14 1006.4
20260902103535 74 178 2.0 8.0 0.00 0.00 0.00 14 1006.3
20260902103050 74 204 4.0 9.0 0.00 0.00 0.00 14 1006.4
20260902102534 74 191 4.0 9.0 0.00 0.00 0.00 15 1006.5
20260902102034 74 170 3.0 9.0 0.00 0.00 0.00 15 1006.5
20260902101536 74 205 3.0 9.0 0.00 0.00 0.00 15 1006.5
20260902101035 73 207 2.0 8.0 0.00 0.00 0.00 15 1006.6
20260902100533 73 215 3.0 8.0 0.00 0.00 0.00 15 1006.5
20260902100036 73 231 3.0 10.0 0.00 0.00 0.00 15 1006.5
20260902095532 73 224 4.0 10.0 0.00 0.00 0.00 15 1006.5
20260902095031 73 218 4.0 9.0 0.00 0.00 0.00 15 1006.6
20260902094530 74 207 4.0 8.0 0.00 0.00 0.00 15 1006.5
20260902094030 74 204 4.0 9.0 0.00 0.00 0.00 15 1006.4
20260902093529 74 185 5.0 9.0 0.00 0.00 0.00 15 1006.5
20260902093029 74 194 4.0 8.0 0.00 0.00 0.00 15 1006.6
20260902092530 74 205 3.0 7.0 0.00 0.00 0.00 15 1006.7
20260902092027 74 211 3.0 9.0 0.00 0.00 0.00 15 1006.7
20260902091526 74 207 3.0 10.0 0.00 0.00 0.00 15 1006.7
20260902091025 75 197 4.0 10.0 0.00 0.00 0.00 15 1006.7
20260902090525 74 191 5.0 8.0 0.00 0.00 0.00 15 1006.7
20260902090029 74 205 3.0 8.0 0.00 0.00 0.00 15 1006.7
20260902085526 74 210 3.0 9.0 0.00 0.00 0.00 15 1006.7
20260902085023 75 201 2.0 9.0 0.00 0.00 0.00 14 1006.7
20260902084529 75 188 5.0 9.0 0.00 0.00 0.00 14 1006.8
20260902084022 75 196 5.0 11.0 0.00 0.00 0.00 15 1006.7
20260902083525 75 174 5.0 11.0 0.00 0.00 0.00 14 1006.6
20260902083020 75 196 4.0 10.0 0.00 0.00 0.00 15 1006.5
20260902082520 75 174 4.0 10.0 0.00 0.00 0.00 15 1006.6
20260902082019 75 175 4.0 15.0 0.00 0.00 0.00 15 1006.6
20260902081520 76 169 7.0 15.0 0.00 0.00 0.00 14 1006.7
20260902081018 76 185 5.0 11.0 0.00 0.00 0.00 14 1006.7
20260902080517 76 178 6.0 11.0 0.00 0.00 0.00 14 1006.7
20260902080021 76 150 5.0 11.0 0.00 0.00 0.00 15 1006.7
20260902075516 76 159 6.0 12.0 0.00 0.00 0.00 15 1006.6
20260902075015 76 167 4.0 11.0 0.00 0.00 0.00 14 1006.6
20260902074513 76 173 3.0 8.0 0.00 0.00 0.00 14 1006.5
20260902074012 77 192 2.0 8.0 0.00 0.00 0.00 14 1006.6
20260902073510 77 188 2.0 6.0 0.00 0.00 0.00 14 1006.6
20260902073010 77 190 2.0 8.0 0.00 0.00 0.00 13 1006.5
20260902072510 77 183 3.0 8.0 0.00 0.00 0.00 13 1006.5
20260902072008 78 242 0.0 6.0 0.00 0.00 0.00 13 1006.4
20260902071507 78 227 3.0 7.0 0.00 0.00 0.00 13 1006.4
20260902071006 78 202 2.0 8.0 0.00 0.00 0.00 13 1006.3
20260902070504 78 208 2.0 13.0 0.00 0.00 0.00 12 1006.2
20260902070007 78 215 3.0 13.0 0.00 0.00 0.00 12 1006.1
20260902065502 78 224 4.0 13.0 0.00 0.00 0.00 12 1006.1
20260902065002 79 225 4.0 13.0 0.00 0.00 0.00 11 1006.2
20260902064508 79 213 5.0 12.0 0.00 0.00 0.00 11 1006.2
20260902064001 79 245 5.0 13.0 0.00 0.00 0.00 11 1006.2
20260902063501 79 231 4.0 12.0 0.00 0.00 0.00 11 1006.2
20260902063005 79 236 6.0 12.0 0.00 0.00 0.00 11 1006.3
20260902062502 79 246 5.0 14.0 0.00 0.00 0.00 11 1006.1
20260902062001 79 270 4.0 14.0 0.00 0.00 0.00 11 1006.0
20260902061503 79 226 6.0 14.0 0.00 0.00 0.00 11 1006.0
20260902061002 79 248 3.0 10.0 0.00 0.00 0.00 11 1006.0
20260902060601 80 237 5.0 12.0 0.00 0.00 0.00 11 1006.0
20260902060109 80 219 4.0 12.0 0.00 0.00 0.00 11 1006.0
20260902055600 80 229 5.0 11.0 0.00 0.00 0.00 11 1005.9
20260902055100 80 235 4.0 9.0 0.00 0.00 0.00 11 1006.0
20260902054600 80 233 3.0 12.0 0.00 0.00 0.00 11 1006.0
20260902054059 80 249 4.0 12.0 0.00 0.00 0.00 11 1006.0
20260902053559 80 248 4.0 12.0 0.00 0.00 0.00 12 1006.1
20260902053105 80 242 6.0 12.0 0.00 0.00 0.00 12 1006.0
20260902052603 80 247 5.0 11.0 0.00 0.00 0.00 12 1006.0
20260902052100 80 233 3.0 10.0 0.00 0.00 0.00 12 1006.0
20260902051613 80 234 4.0 10.0 0.00 0.00 0.00 12 1006.0
20260902051059 80 225 5.0 9.0 0.00 0.00 0.00 12 1006.1
20260902050600 80 245 3.0 10.0 0.00 0.00 0.00 12 1005.9
20260902050058 81 228 3.0 13.0 0.00 0.00 0.00 12 1006.0
20260902045559 81 240 4.0 13.0 0.00 0.00 0.00 12 1005.9
20260902045057 81 238 2.0 10.0 0.00 0.00 0.00 12 1005.9
20260902044619 81 242 4.0 10.0 0.00 0.00 0.00 12 1005.9
20260902044056 81 232 3.0 10.0 0.00 0.00 0.00 12 1005.9
20260902043557 81 261 2.0 10.0 0.00 0.00 0.00 12 1005.9
20260902043057 81 242 4.0 10.0 0.00 0.00 0.00 12 1005.7
20260902042557 81 220 3.0 10.0 0.00 0.00 0.00 12 1005.7
20260902042057 82 227 4.0 11.0 0.00 0.00 0.00 12 1005.6
20260902041557 82 240 4.0 15.0 0.00 0.00 0.00 12 1005.5
20260902041057 82 240 6.0 15.0 0.00 0.00 0.00 12 1005.4
20260902040556 82 229 4.0 10.0 0.00 0.00 0.00 12 1005.4
20260902040057 82 259 4.0 10.0 0.00 0.00 0.00 13 1005.4
20260902035556 82 236 2.0 7.0 0.00 0.00 0.00 13 1005.4
20260902035055 82 266 3.0 7.0 0.00 0.00 0.00 13 1005.3
20260902034600 83 285 2.0 8.0 0.00 0.00 0.00 13 1005.2
20260902034054 83 213 3.0 8.0 0.00 0.00 0.00 13 1005.1
20260902033555 83 234 2.0 9.0 0.00 0.00 0.00 13 1005.1
20260902033055 83 209 4.0 9.0 0.00 0.00 0.00 13 1005.0
20260902032557 83 227 2.0 8.0 0.00 0.00 0.00 13 1004.9
20260902032055 83 236 3.0 10.0 0.00 0.00 0.00 13 1004.9
20260902031600 83 239 4.0 10.0 0.00 0.00 0.00 13 1004.9
20260902031055 84 242 3.0 12.0 0.00 0.00 0.00 13 1004.8
20260902030555 83 202 5.0 10.0 0.00 0.00 0.00 13 1004.7
20260902030058 84 248 4.0 10.0 0.00 0.00 0.00 14 1004.6
20260902025554 84 233 3.0 14.0 0.00 0.00 0.00 14 1004.6
20260902025054 84 242 6.0 14.0 0.00 0.00 0.00 14 1004.6
20260902024600 84 240 4.0 10.0 0.00 0.00 0.00 14 1004.6
20260902024053 84 243 4.0 10.0 0.00 0.00 0.00 14 1004.6
20260902023553 84 242 4.0 10.0 0.00 0.00 0.00 14 1004.7
20260902023053 84 248 5.0 12.0 0.00 0.00 0.00 14 1004.6
20260902022553 84 223 5.0 12.0 0.00 0.00 0.00 14 1004.6
20260902022055 84 211 5.0 13.0 0.00 0.00 0.00 15 1004.5
20260902021553 84 215 4.0 10.0 0.00 0.00 0.00 14 1004.5
20260902021053 85 202 5.0 10.0 0.00 0.00 0.00 14 1004.5
20260902020552 85 220 5.0 11.0 0.00 0.00 0.00 14 1004.5
20260902020053 85 251 4.0 12.0 0.00 0.00 0.00 14 1004.6
20260902015550 85 195 4.0 12.0 0.00 0.00 0.00 14 1004.6
20260902015049 85 233 3.0 10.0 0.00 0.00 0.00 14 1004.8
20260902014649 85 234 5.0 12.0 0.00 0.00 0.00 13 1004.8
20260902014048 85 229 5.0 11.0 0.00 0.00 0.00 13 1004.8
20260902013548 85 201 5.0 12.0 0.00 0.00 0.00 13 1004.9
20260902013053 85 265 4.0 12.0 0.00 0.00 0.00 13 1004.8
20260902012547 86 196 4.0 10.0 0.00 0.00 0.00 13 1004.8
20260902012047 86 212 3.0 12.0 0.00 0.00 0.00 13 1004.9
20260902011546 87 193 4.0 12.0 0.00 0.00 0.00 12 1004.9
20260902011048 87 242 6.0 14.0 0.00 0.00 0.00 12 1005.0
20260902010546 87 202 6.0 14.0 0.00 0.00 0.00 12 1005.0
20260902010046 87 211 5.0 10.0 0.00 0.00 0.00 12 1005.1
20260902005544 87 197 5.0 12.0 0.00 0.00 0.00 12 1005.1
20260902005044 87 252 5.0 11.0 0.00 0.00 0.00 12 1005.1
20260902004543 87 256 6.0 11.0 0.00 0.00 0.00 12 1005.1
20260902004042 88 191 5.0 12.0 0.00 0.00 0.00 12 1005.3
20260902003542 88 205 5.0 12.0 0.00 0.00 0.00 12 1005.2
20260902003042 88 217 8.0 13.0 0.00 0.00 0.00 12 1005.3
20260902002540 88 200 6.0 12.0 0.00 0.00 0.00 11 1005.3
20260902002041 88 251 6.0 15.0 0.00 0.00 0.00 11 1005.3
20260902001540 88 227 7.0 15.0 0.00 0.00 0.00 11 1005.2
20260902001039 88 175 6.0 14.0 0.00 0.00 0.00 11 1005.3
20260902000538 88 192 7.0 13.0 0.00 0.00 0.00 11 1005.3
20260902000038 88 236 6.0 12.0 0.00 0.00 0.00 11 1005.3
20260901235538 88 219 6.0 18.0 0.00 0.00 0.00 11 1005.4
20260901235037 88 198 8.0 18.0 0.00 0.00 0.00 11 1005.4
20260901234537 88 229 8.0 18.0 0.00 0.00 0.00 10 1005.4
20260901234037 89 195 7.0 14.0 0.00 0.00 0.00 10 1005.4
20260901233537 88 241 7.0 18.0 0.00 0.00 0.00 10 1005.4
20260901233037 88 224 7.0 22.0 0.00 0.00 0.00 10 1005.5
20260901232536 89 257 9.0 22.0 0.00 0.00 0.00 10 1005.5